GFSNGP_2pvu_pres_081.txt.gz
Presure
330 319 314 307 280 280 276 273 281 259 268 262 267 274 286 291 274 281 311 272 268 268 272 271 269 176 273 274 271 275 274 270 282 278 283 271 223 252 175 176 188 243 203 200
302 323 330 321 315 314 312 312 282 276 270 279 278 276 273 281 293 292 289 304 319 293 271 264 269 277 275 277 282 275 274 265 252 266 264 264 271 262 243 249 254 252 246 182
297 295 295 304 291 302 311 313 317 318 280 278 280 281 296 296 301 307 320 329 325 333 276 296 318 319 288 285 276 273 273 270 155 263 262 266 264 253 251 254 252 253 246 247
298 292 294 286 286 282 293 294 307 303 293 296 292 290 286 281 276 283 289 310 316 313 332 315 340 292 322 342 268 314 227 331 314 307 289 275 267 269 285 283 277 280 271 269
288 294 289 284 282 280 283 285 291 281 285 281 285 287 285 289 282 302 299 287 303 295 292 321 297 335 293 284 355 304 331 322 309 311 319 321 280 280 271 265 266 256 276 270
285 294 292 281 283 280 283 283 281 277 281 286 283 278 280 283 280 279 283 269 278 286 295 296 309 315 309 262 273 301 299 269 270 266 262 262 251 256 285 275 264 271 279 275
278 281 276 282 291 288 290 277 276 279 281 266 276 274 262 269 272 266 265 269 270 279 273 276 297 282 304 293 296 290 278 265 250 248 259 251 250 262 286 268 259 262 248 238
286 279 269 271 279 291 301 288 284 283 281 282 280 266 271 275 267 261 269 262 264 263 268 270 269 287 284 276 278 280 277 282 261 259 247 266 261 256 257 253 250 246 244 243
293 288 278 277 269 276 272 279 290 293 300 295 280 275 277 273 271 271 263 257 273 269 251 250 257 264 272 281 285 295 274 266 277 267 264 269 278 271 257 251 251 247 247 249
283 293 286 282 275 272 274 276 271 293 304 309 306 299 288 279 274 275 277 269 267 269 263 259 261 253 260 254 253 254 260 274 291 273 264 256 254 253 256 252 253 265 269 252
290 235 285 288 281 279 275 275 272 274 287 287 288 287 290 298 303 297 273 276 267 274 270 266 256 262 254 255 262 259 270 268 272 261 262 272 275 278 273 264 257 247 241 245
290 260 282 290 286 282 277 273 274 267 271 275 283 276 289 304 304 296 275 284 266 262 268 262 257 259 258 258 252 260 251 259 274 273 270 266 259 247 246 248 240 240 237 241
292 290 278 276 273 286 280 271 267 268 269 267 264 277 274 291 291 277 273 269 267 271 276 278 271 262 269 268 269 249 271 256 255 259 254 239 244 241 240 244 246 245 240 236
291 289 280 278 272 271 270 284 275 272 266 261 261 259 262 273 289 276 263 260 258 258 262 261 262 264 275 273 267 262 258 259 252 242 241 236 232 240 237 240 237 237 231 238
296 285 281 270 271 269 269 269 266 267 265 270 269 263 259 256 256 269 275 267 266 265 271 276 265 267 263 260 253 253 257 244 242 242 237 237 235 242 236 240 235 232 233 236
313 294 277 278 277 261 263 276 274 272 269 265 266 262 259 256 260 257 250 252 259 263 259 256 267 261 258 259 251 248 250 253 237 236 245 242 238 248 249 241 233 232 237 227
312 296 289 277 275 272 268 268 268 264 264 264 264 263 261 262 268 266 254 254 251 248 250 262 257 253 263 254 253 254 251 252 248 247 248 241 246 235 238 235 230 232 235 223
302 298 290 286 278 276 272 269 267 266 262 262 261 263 256 259 259 257 252 254 256 253 254 247 254 263 254 255 257 257 258 243 246 242 250 247 248 254 247 239 243 237 237 216
295 287 291 287 284 280 274 270 268 264 262 263 263 261 261 261 262 253 257 261 259 263 262 260 262 249 260 265 257 251 250 256 251 249 245 247 249 254 256 250 247 227 216 213
290 285 286 284 281 285 283 281 281 280 275 273 272 271 269 268 265 260 263 269 265 269 270 267 267 279 255 263 267 265 262 262 263 262 258 261 262 264 270 271 217 217 218 223
293 295 291 279 276 275 274 275 275 277 279 275 276 281 283 280 279 273 280 289 300 311 321 336 305 292 258 265 263 258 254 252 250 247 248 245 217 216 215 216 217 217 218 217
281 286 290 288 288 286 287 286 286 287 287 284 285 278 273 280 287 316 316 309 347 345 353 362 377 381 262 253 248 245 247 246 232 229 227 219 215 213 214 214 212 217 216 216
286 284 281 277 273 271 268 268 268 271 274 279 281 327 327 330 322 315 310 309 311 316 319 323 325 268 252 249 243 244 245 226 221 226 238 272 274 216 215 216 216 216 216 216
320 323 315 316 318 318 319 316 316 311 312 307 312 308 309 304 299 296 291 287 286 288 288 284 272 257 247 244 245 242 245 228 223 223 238 267 252 229 224 221 220 221 224 226
302 300 300 297 296 293 294 296 294 295 294 296 292 292 293 287 281 278 277 275 274 272 272 270 264 257 249 246 243 247 249 245 235 224 222 223 245 244 240 236 234 230 228 230
289 290 283 287 286 289 285 276 284 284 281 282 285 284 281 277 271 271 269 264 263 259 256 255 254 254 258 256 251 248 247 252 255 252 253 251 251 250 247 243 239 239 241 249
271 288 286 287 278 283 271 271 274 282 279 278 277 276 279 276 267 266 263 258 256 254 252 254 253 252 248 247 244 242 239 238 238 238 238 238 238 239 244 255 264 273 271 267

GFSNGP_2pvu_pres_084.txt.gz
Presure
320 311 301 285 292 296 290 281 280 262 268 255 257 269 278 271 287 289 276 282 294 274 272 283 278 275 278 259 214 259 289 236 266 162 269 276 205 202 134 214 209 194 213 182
297 328 315 314 275 294 295 289 290 287 274 267 274 271 268 285 288 288 291 280 266 304 306 270 265 266 264 273 271 272 268 267 175 264 264 127 264 266 266 274 205 202 258 195
295 299 309 338 327 316 299 286 287 287 277 289 285 282 278 277 280 282 282 290 297 290 274 292 317 294 275 271 274 275 275 277 280 277 279 273 268 260 258 256 261 266 260 261
297 291 307 290 308 328 326 314 320 310 269 285 280 277 267 267 263 276 290 289 285 316 314 316 300 276 308 333 282 272 276 284 278 275 275 275 273 277 276 282 282 275 253 264
298 291 288 287 290 302 299 297 312 309 311 318 326 300 272 278 282 287 293 296 295 292 300 306 316 303 324 327 289 293 305 347 339 323 343 340 319 293 297 292 289 292 286 291
302 288 280 286 288 288 290 294 285 293 298 305 304 310 294 289 290 290 284 295 287 298 284 292 298 302 296 296 311 307 328 328 351 264 292 320 319 322 289 307 292 265 307 301
303 291 282 286 286 294 288 281 276 274 276 288 289 288 291 286 284 282 284 281 281 271 289 277 279 283 288 294 292 306 298 308 341 317 287 264 258 267 261 262 258 277 270 243
302 294 280 287 271 294 287 284 283 279 277 273 275 276 285 261 274 277 263 264 268 275 266 265 265 271 274 275 294 277 295 284 288 291 297 248 248 250 264 247 244 262 256 255
312 295 283 287 291 281 289 291 288 288 285 282 281 279 278 280 273 264 263 274 264 263 257 258 267 253 259 263 265 273 284 276 271 273 273 286 274 261 253 253 258 256 261 251
315 300 287 287 262 272 275 274 272 271 287 292 293 295 295 288 279 284 272 266 264 266 267 253 253 264 256 250 250 256 261 265 269 285 275 262 270 271 266 273 265 258 247 261
321 303 292 282 282 275 272 271 271 273 273 270 271 299 308 310 305 300 289 278 275 273 274 277 263 263 263 256 260 253 250 257 252 254 254 262 266 280 275 266 262 260 261 256
331 311 291 287 283 281 273 275 272 272 267 270 268 265 283 283 284 288 298 303 302 297 277 274 275 266 276 272 257 261 257 248 255 256 263 262 261 262 255 256 259 267 273 262
341 318 287 284 284 283 288 281 281 280 277 271 268 267 264 279 274 284 304 306 301 296 278 279 276 261 266 267 254 257 256 256 260 248 256 251 266 267 266 263 261 253 248 241
349 327 291 282 279 276 282 287 281 282 274 274 267 269 265 265 264 267 292 288 278 272 273 271 268 269 264 276 274 266 258 264 269 264 244 254 256 257 256 251 241 237 237 236
341 340 300 285 284 273 274 276 285 289 283 275 273 271 264 259 259 260 261 280 281 272 264 262 261 258 264 266 259 255 264 269 268 266 264 260 253 254 251 238 237 236 232 238
351 331 304 284 281 280 276 274 268 267 268 273 273 264 266 274 270 266 257 258 257 255 268 268 263 264 264 272 268 258 261 262 259 259 251 253 252 241 238 237 239 233 235 239
340 316 330 293 278 276 277 265 263 269 263 267 262 263 262 258 258 260 261 261 256 253 257 246 247 253 260 256 264 262 256 261 259 252 251 248 248 241 241 240 234 238 244 234
318 318 308 309 289 282 270 274 271 268 269 270 264 265 265 264 261 260 259 260 254 255 254 253 252 252 249 247 255 257 254 261 260 257 251 244 245 250 240 235 239 247 241 247
304 319 306 302 305 293 285 276 270 265 265 265 267 266 265 263 264 263 262 260 252 258 259 257 255 253 254 254 253 246 253 259 256 260 256 253 250 258 250 258 243 252 251 251
311 300 313 308 297 297 294 284 281 277 270 265 260 261 265 268 268 267 266 264 267 268 267 269 265 262 265 266 270 266 263 250 262 261 254 259 257 256 253 252 253 252 257 263
294 327 297 296 286 281 280 280 280 278 273 273 273 270 268 266 267 266 266 266 275 279 284 278 280 285 283 287 286 276 273 270 250 259 265 264 256 255 261 263 254 253 258 258
298 287 290 293 284 279 276 274 275 275 274 273 274 273 274 280 286 282 280 281 277 280 293 306 343 324 341 356 368 382 344 282 257 260 266 265 258 252 248 243 238 231 226 221
302 298 295 284 282 287 286 284 284 283 282 282 287 283 267 286 275 276 295 323 331 317 309 307 309 311 317 323 335 345 362 302 260 263 252 246 244 242 232 227 227 230 246 266
315 311 302 292 287 284 280 277 273 273 273 274 276 276 288 308 318 321 309 306 297 291 287 286 285 290 291 294 295 294 284 262 256 250 242 240 244 243 225 224 224 222 229 266
315 318 311 312 310 310 308 307 305 304 305 302 302 301 295 295 292 295 293 285 277 274 270 276 276 275 275 276 273 263 258 250 245 242 241 240 239 244 245 242 229 227 225 229
297 299 306 299 297 298 296 291 293 288 292 287 285 287 286 287 285 280 279 277 267 267 264 269 266 265 265 264 262 257 252 247 243 241 243 246 253 249 250 258 258 252 246 242
309 281 309 269 290 291 274 280 282 287 281 272 278 276 276 277 276 276 276 275 267 264 263 260 260 258 255 254 254 254 253 252 254 255 250 246 244 242 241 239 239 239 241 242

GFSNGP_2pvu_pres_087.txt.gz
Presure
316 298 289 288 284 299 286 284 282 280 263 263 263 265 272 269 259 263 287 265 293 272 268 261 255 243 237 231 225 227 224 224 227 226 132 221 216 104 208 207 210 213 218 220
316 314 297 289 289 288 289 289 281 279 274 272 266 257 265 262 262 286 272 258 291 285 277 306 266 262 260 255 252 252 256 253 252 252 252 252 248 241 230 280 233 217 216 286
166 308 309 307 290 292 288 288 296 284 267 272 271 274 266 265 275 259 252 285 267 284 291 278 259 256 257 257 258 252 251 264 253 263 283 262 276 275 249 275 275 269 267 197
245 306 308 300 313 303 285 293 294 293 294 288 287 282 271 274 274 275 277 269 280 283 280 284 293 286 284 281 294 309 297 287 286 274 274 270 272 272 275 284 267 258 273 273
187 156 310 290 290 323 319 312 282 291 288 288 288 276 279 279 272 278 282 288 285 282 283 292 289 292 287 303 327 298 289 287 288 311 326 279 274 274 280 277 275 274 262 270
142 258 250 290 286 297 311 318 329 337 284 293 288 287 294 293 293 301 291 286 276 269 274 278 288 305 294 302 316 310 302 316 324 324 330 293 289 293 357 352 336 331 338 346
228 213 314 290 288 296 296 298 310 317 316 315 310 310 312 313 316 320 289 271 268 271 279 294 293 294 288 278 285 291 300 299 303 305 317 317 309 341 278 322 321 324 308 270
144 152 315 297 291 298 291 287 293 295 292 287 290 292 294 296 293 301 300 292 295 295 301 295 298 282 279 283 275 277 278 299 284 296 292 288 318 312 300 291 299 292 263 268
373 370 331 304 293 293 293 296 289 289 284 275 271 272 273 274 277 266 292 275 278 282 273 269 270 273 269 263 257 267 274 264 276 283 286 280 287 280 289 289 278 270 256 245
363 356 345 311 297 290 283 286 288 280 281 282 283 283 283 283 281 279 277 276 279 264 265 267 262 263 261 255 254 263 252 256 260 264 275 275 276 262 271 262 261 264 262 275
279 356 343 318 301 293 287 175 278 282 289 287 287 295 296 292 290 289 289 289 282 277 277 269 264 258 260 258 266 258 266 249 249 252 252 254 260 267 277 265 264 270 264 256
334 408 358 326 304 294 284 272 273 272 277 272 272 275 274 270 274 299 304 305 301 297 289 279 276 268 268 270 273 266 261 266 253 249 246 243 242 251 246 251 266 266 275 274
358 405 367 330 304 296 291 278 278 274 274 270 268 269 267 269 269 267 277 274 276 289 300 301 293 292 286 276 266 274 263 269 273 261 253 252 249 249 250 256 264 262 263 253
358 386 324 340 295 282 274 279 276 277 277 281 275 272 273 267 269 264 263 278 271 291 295 294 299 301 295 280 265 274 258 268 269 265 256 259 258 262 261 249 256 258 262 265
365 387 344 341 301 284 273 274 280 275 275 277 275 274 270 270 263 265 265 266 265 270 287 279 274 268 272 272 269 264 266 265 274 271 266 265 258 262 271 263 247 251 258 254
353 366 349 344 309 290 277 275 271 268 270 272 270 276 279 266 265 265 263 262 262 259 253 266 278 270 264 261 259 260 257 261 267 257 257 254 266 270 266 263 262 260 251 249
385 360 343 332 319 297 269 272 275 269 270 278 278 267 263 264 269 264 258 255 263 259 257 254 253 253 257 251 258 261 261 260 264 271 260 262 256 261 260 253 253 251 250 250
361 366 329 320 328 308 288 283 277 276 276 270 261 267 267 264 263 260 260 257 257 258 259 257 254 255 254 252 251 250 247 246 252 256 262 259 257 259 256 247 250 251 253 245
324 339 310 306 315 323 298 285 279 274 263 262 266 265 257 258 260 253 255 261 261 261 260 255 254 257 258 256 253 253 252 252 251 252 251 253 255 255 261 262 254 251 247 246
324 306 314 301 311 297 314 306 293 280 272 268 266 262 258 258 258 259 262 264 264 262 262 262 267 268 268 266 265 266 267 262 260 261 261 257 256 251 259 256 263 258 253 252
333 314 300 300 301 308 308 302 300 297 283 276 273 269 267 266 263 259 256 259 261 263 266 267 268 270 279 281 288 285 292 293 289 287 273 267 273 266 254 258 262 255 257 257
337 321 311 299 291 336 288 291 291 285 283 280 276 269 267 266 266 267 268 269 274 278 277 277 294 275 286 286 305 322 328 326 335 346 365 343 289 275 270 252 255 262 265 263
329 325 317 307 299 287 286 285 283 278 279 278 278 277 275 276 271 268 265 266 273 298 280 287 297 320 320 303 296 299 304 313 319 329 350 369 373 343 268 263 259 265 258 251
326 309 317 313 307 302 293 286 277 277 280 281 280 282 282 283 276 282 277 276 280 320 320 313 303 294 285 278 278 283 286 291 299 305 315 325 331 267 262 263 257 244 245 244
324 308 312 286 311 305 302 303 302 297 290 283 280 279 283 283 306 307 305 300 293 292 293 289 282 279 270 264 273 271 272 272 273 278 281 279 272 261 257 251 244 237 236 240
326 298 314 287 305 305 299 300 303 302 300 299 297 297 293 294 293 285 283 281 284 278 279 278 274 273 267 262 265 265 263 264 264 262 256 255 251 247 244 242 241 240 240 239
302 315 291 308 283 299 274 301 269 289 290 284 286 280 283 279 277 277 275 274 276 274 274 271 272 266 266 263 258 257 262 260 259 258 255 254 253 251 250 250 249 255 256 251

GFSNGP_2pvu_pres_090.txt.gz
Presure
152 159 262 302 296 289 287 285 285 286 291 305 281 285 280 256 285 267 262 266 270 273 273 266 251 241 240 236 230 225 223 223 221 221 218 235 219 211 203 202 201 197 198 198
149 156 310 303 296 291 287 283 284 279 282 273 288 286 282 266 275 257 258 271 279 270 270 273 271 269 271 263 237 236 236 230 227 226 226 221 236 221 218 219 220 217 209 210
284 142 178 149 301 297 292 290 281 280 278 279 275 278 276 274 270 266 265 257 261 266 268 267 271 292 269 271 266 262 260 252 244 240 209 234 230 229 227 227 226 225 224 225
342 204 252 317 236 295 289 293 291 286 274 282 284 279 273 270 267 274 272 273 278 278 271 260 268 264 254 266 271 285 273 269 264 260 260 259 256 253 252 252 252 258 259 255
348 342 146 164 181 301 289 287 293 286 296 285 280 277 281 275 275 273 267 267 269 268 263 260 255 258 272 271 268 258 252 258 256 254 254 253 252 250 253 254 255 314 314 312
353 347 275 148 314 312 300 289 291 292 290 289 285 290 289 284 278 273 272 275 273 274 274 280 281 270 273 262 262 262 293 282 292 290 294 320 328 332 343 337 329 322 318 326
360 222 343 370 315 314 298 290 302 324 307 290 294 299 296 289 285 290 293 292 286 280 287 280 281 281 300 295 284 268 275 290 309 290 298 313 308 304 315 322 327 328 339 338
423 368 359 354 326 315 299 293 284 305 311 320 329 333 314 283 285 285 285 279 289 308 309 275 271 278 271 261 264 284 294 285 284 283 281 287 291 299 297 296 299 330 311 308
386 363 353 174 372 320 299 293 292 294 292 299 302 307 309 307 307 301 299 297 291 302 299 293 293 291 295 304 301 295 293 278 283 275 272 275 272 283 279 283 287 290 294 280
423 348 122 356 333 335 302 292 286 287 284 285 284 291 287 289 290 283 280 279 276 279 286 285 284 285 283 278 277 277 279 266 266 259 261 258 261 264 273 275 272 266 281 276
136 227 384 339 284 360 311 296 294 288 288 231 287 283 280 274 275 277 280 282 282 281 280 279 277 273 267 269 266 257 250 258 254 250 258 254 250 257 256 261 264 276 260 270
345 357 369 397 259 335 328 302 292 281 286 288 278 278 284 289 292 293 295 295 288 291 294 292 289 283 281 279 276 266 263 260 262 263 258 262 255 250 249 243 248 251 253 262
149 358 366 400 416 341 331 310 293 285 274 279 278 281 283 272 270 271 268 269 268 298 307 308 305 303 301 296 287 279 276 275 274 271 272 270 258 264 252 250 248 249 241 243
197 363 380 440 413 338 336 297 291 281 278 280 271 270 266 265 265 262 262 265 267 266 270 274 270 294 309 314 313 301 300 301 288 279 264 271 269 273 274 264 259 250 249 250
148 350 389 413 395 353 334 305 289 280 271 266 270 269 269 273 266 266 266 268 260 263 261 259 265 271 293 288 287 287 286 281 278 270 273 268 260 261 266 267 258 258 248 262
310 345 357 396 402 342 327 307 287 274 275 273 269 268 274 273 274 269 270 267 266 260 263 255 253 256 254 267 277 273 270 270 267 267 264 264 267 263 269 267 264 262 254 256
249 343 349 328 388 353 335 314 294 284 282 273 278 268 266 272 284 273 273 270 262 262 262 261 267 271 261 259 255 254 272 268 263 262 262 261 262 263 278 268 261 259 261 267
246 331 327 342 336 346 337 322 289 284 281 280 275 270 261 262 273 279 277 271 268 269 265 264 261 258 256 256 257 255 254 254 256 257 255 252 250 249 255 257 265 252 254 256
115 308 332 331 323 330 323 318 303 290 285 285 272 268 269 267 266 260 265 266 261 258 254 256 257 262 258 263 263 258 254 255 255 255 253 252 251 252 253 254 250 253 254 258
252 284 338 319 306 305 320 311 314 305 294 278 275 264 269 265 261 260 262 257 253 256 257 257 252 253 260 260 258 256 256 258 263 264 263 261 258 257 257 259 261 259 256 252
241 308 349 330 311 301 294 291 293 286 307 292 277 273 268 264 262 258 259 262 259 257 257 256 255 261 262 262 266 268 275 278 279 291 288 291 297 287 290 293 293 270 257 267
237 260 350 337 323 306 297 289 292 289 295 287 297 287 280 272 270 266 264 265 261 264 265 267 267 269 273 277 274 265 279 285 287 298 325 317 316 320 333 345 346 350 293 277
228 260 347 327 325 322 312 298 289 306 285 296 291 289 293 296 283 276 271 270 271 272 274 275 271 267 271 267 283 295 313 314 305 292 294 294 297 305 318 326 360 359 357 327
269 303 336 321 325 310 307 307 301 290 286 283 279 279 278 279 271 269 269 269 268 267 267 270 279 283 280 316 309 303 296 288 279 276 276 273 271 284 297 305 315 329 354 340
288 320 324 329 314 313 306 309 306 305 299 292 284 279 276 277 278 278 277 276 274 273 273 278 306 298 294 292 288 283 277 277 268 268 266 267 267 266 267 277 286 295 303 265
374 347 333 321 311 314 304 304 290 292 303 290 304 306 303 295 291 290 290 294 295 295 292 286 282 282 278 279 277 272 272 273 266 263 260 262 263 264 262 256 256 258 258 255
381 359 333 316 323 300 311 292 308 281 299 298 301 297 293 291 292 289 288 285 282 278 274 276 276 274 272 272 269 270 269 265 266 265 262 257 256 260 263 262 259 255 253 251

GFSNGP_2pvu_pres_093.txt.gz
Presure
365 126 233 152 313 305 302 292 289 291 287 297 322 318 332 319 267 280 264 291 313 288 277 271 266 266 268 262 254 249 243 237 230 225 220 216 216 215 209 205 216 246 244 241
372 375 152 169 170 149 160 311 299 283 290 287 292 313 308 304 323 292 269 261 254 272 291 279 281 283 277 267 266 260 252 246 240 236 231 227 226 225 222 224 220 216 210 212
372 358 354 333 147 306 154 311 304 297 287 280 285 292 295 301 301 301 292 281 260 259 272 268 265 268 273 277 276 272 263 257 249 240 233 234 233 231 232 232 231 230 228 226
361 354 339 346 141 251 155 296 302 295 287 283 287 285 289 285 299 292 286 282 283 273 265 257 261 261 263 266 273 274 275 267 267 265 263 261 260 256 253 250 248 245 244 240
307 350 336 340 170 325 314 305 296 287 278 284 285 282 279 282 280 280 282 284 281 278 269 268 267 269 268 254 254 255 264 276 266 260 270 267 261 260 258 259 259 259 260 262
369 373 356 139 152 336 333 310 303 295 289 279 282 278 283 284 280 280 279 274 274 273 271 272 269 264 264 263 261 260 259 259 259 255 251 253 275 282 292 296 324 325 330 335
324 363 364 350 227 361 149 330 310 303 293 289 294 292 282 280 279 283 281 281 281 277 277 279 278 275 268 271 269 272 266 271 274 275 279 289 285 280 282 290 298 303 317 316
286 401 373 139 344 133 330 349 322 305 293 289 283 282 287 288 289 292 291 282 277 284 279 277 277 284 282 290 289 285 282 284 294 288 282 280 277 291 282 278 288 296 293 297
249 403 433 417 137 327 351 335 317 310 301 292 290 296 317 319 302 290 287 284 284 280 285 280 279 314 328 320 301 288 266 264 260 264 265 268 298 287 285 279 267 277 277 277
275 376 132 309 197 383 349 350 324 298 296 292 284 290 299 314 311 312 312 311 306 300 300 300 291 294 301 303 299 293 290 294 292 294 294 291 291 280 280 271 268 262 265 270
144 283 131 124 145 363 271 336 341 301 292 287 287 284 287 293 297 294 288 287 282 282 281 278 276 276 280 282 280 284 287 282 277 280 276 277 274 272 262 264 257 259 259 256
259 162 132 125 148 366 369 275 336 311 295 286 285 284 282 283 277 284 284 284 278 271 273 276 280 281 281 278 276 275 274 275 271 270 270 267 260 255 256 259 258 251 259 250
145 270 119 118 123 361 351 351 350 338 299 290 286 280 281 278 281 282 276 275 282 290 297 292 280 294 301 305 301 293 291 286 282 278 276 274 271 266 261 265 267 273 259 252
257 253 290 366 123 360 376 372 345 340 303 288 282 283 282 281 280 279 285 282 270 270 269 269 269 265 275 277 275 279 292 296 297 298 298 291 289 290 294 287 271 270 279 263
248 243 283 370 230 410 381 407 350 338 321 291 280 264 263 269 273 269 274 266 264 265 265 266 266 268 263 266 269 268 289 296 302 305 304 298 292 289 285 277 262 272 270 264
240 263 278 349 362 415 366 338 348 335 318 297 281 268 273 278 278 271 270 264 263 264 265 268 265 260 263 265 263 259 261 258 273 278 278 277 274 271 269 269 265 262 266 264
246 243 274 333 342 365 375 354 339 327 312 298 286 274 275 252 268 268 268 271 271 271 271 268 264 268 261 266 262 264 272 266 260 258 259 264 269 268 262 258 259 260 262 264
258 268 254 364 340 346 330 344 332 324 319 307 292 278 263 276 274 265 267 265 272 282 273 274 271 263 264 265 265 263 263 258 257 259 257 257 255 255 254 254 255 256 255 252
253 252 258 374 354 348 322 321 317 328 316 310 302 289 276 278 269 265 267 262 261 266 276 276 273 270 270 269 261 259 258 261 260 256 254 254 260 259 258 255 253 253 253 254
247 251 249 370 369 334 318 307 305 306 310 314 311 299 284 273 269 261 262 265 269 267 263 260 264 264 254 251 258 258 255 254 255 261 262 262 260 263 264 268 269 272 272 271
241 255 261 297 368 356 326 305 300 290 291 290 292 313 297 280 271 268 267 266 266 266 260 258 260 259 259 260 256 254 257 253 260 263 265 263 274 272 274 278 283 287 317 310
247 246 255 287 373 353 352 320 306 296 288 284 284 284 281 298 286 278 269 268 264 262 260 259 257 257 255 254 254 261 264 261 270 274 272 272 268 280 298 312 302 298 300 308
235 247 254 275 375 349 345 328 319 304 298 289 280 286 279 285 286 297 289 281 268 267 266 266 266 265 263 260 259 270 276 269 269 276 283 281 313 305 292 288 283 282 283 283
237 263 251 278 367 361 344 329 316 311 303 301 295 284 278 297 276 279 283 282 284 287 288 287 285 282 281 276 269 268 266 278 279 305 303 295 290 287 277 277 272 268 267 267
234 252 257 285 384 360 340 331 317 311 306 303 306 303 296 283 276 276 281 279 273 269 268 268 266 265 266 271 279 277 272 297 293 291 286 280 278 275 272 268 267 265 266 264
241 256 262 289 376 366 346 332 315 309 315 300 292 295 290 306 300 292 286 277 276 275 274 275 274 273 270 270 287 292 287 283 280 280 276 278 273 271 271 268 266 264 262 263
252 257 280 286 384 377 356 335 325 314 311 299 290 290 288 278 287 300 300 296 298 296 293 293 293 292 290 285 280 274 275 275 274 275 273 270 270 271 271 268 268 269 270 267

GFSNGP_2pvu_pres_096.txt.gz
Presure
353 372 363 341 156 143 144 149 300 283 299 306 306 305 323 292 293 312 281 274 265 259 260 258 308 293 291 255 277 271 266 261 257 250 245 202 198 195 197 199 193 193 195 207
176 388 352 370 329 330 142 150 158 296 299 281 290 317 297 319 316 312 302 286 275 264 257 252 251 322 291 282 275 272 269 269 264 261 262 258 254 251 246 233 233 230 224 224
116 394 379 357 353 334 237 307 143 222 287 284 291 294 290 295 324 323 319 314 320 312 268 282 253 296 307 292 276 273 273 275 273 271 267 268 267 263 254 245 240 238 236 235
302 142 374 374 364 343 246 320 321 306 297 296 290 288 293 296 295 314 323 321 316 303 327 280 259 261 257 277 283 283 281 286 279 277 275 273 270 264 256 253 250 247 242 238
156 292 301 385 370 361 146 310 313 311 301 298 298 292 288 285 286 302 303 308 305 311 298 307 314 274 270 273 253 266 269 273 272 270 266 265 274 273 270 266 264 263 262 261
118 143 301 395 363 373 142 330 134 233 258 308 304 291 287 285 287 283 285 288 292 297 286 284 296 287 282 272 270 271 272 268 271 273 260 262 253 250 253 278 283 278 268 269
225 269 277 377 369 345 187 150 163 332 306 299 299 288 286 282 278 277 281 281 285 282 281 284 279 276 275 278 274 269 267 259 259 260 264 261 262 261 256 269 266 271 298 263
244 224 275 386 366 367 216 259 329 326 332 311 296 291 285 283 280 275 272 271 273 276 277 276 277 276 276 274 270 264 267 273 275 272 273 272 274 272 270 268 281 278 288 283
139 254 284 323 397 277 128 151 174 324 335 315 323 296 290 290 284 281 281 276 272 270 278 276 272 270 269 266 267 270 273 274 285 287 282 285 285 285 288 290 286 276 270 289
233 244 165 343 376 371 139 126 375 329 331 334 316 305 291 295 286 288 286 285 285 283 283 281 284 284 284 283 283 284 327 324 325 326 292 283 283 284 286 276 281 300 295 279
245 254 189 130 342 360 132 124 287 349 336 327 320 305 297 293 291 286 287 319 321 322 322 315 311 311 300 301 300 298 293 291 294 294 292 290 286 289 291 288 282 288 281 274
237 222 228 182 355 223 347 142 286 230 347 294 306 297 296 289 285 283 294 298 286 294 293 286 281 280 278 277 276 274 274 273 274 274 275 277 276 283 275 274 266 262 266 267
237 246 224 271 312 389 357 323 351 239 312 340 313 301 288 285 284 284 279 282 288 278 283 283 277 282 273 266 275 278 285 285 284 283 282 280 280 277 275 272 269 266 268 261
221 246 239 273 303 405 368 326 314 340 367 331 330 301 295 286 280 277 275 277 275 280 273 274 272 275 286 289 280 277 293 296 294 289 288 291 293 295 293 290 287 281 276 275
238 233 242 267 293 391 416 388 361 339 357 331 341 312 295 284 281 274 270 269 271 274 274 278 282 273 268 266 264 267 265 272 276 272 268 289 292 314 313 304 294 290 293 293
236 209 237 259 280 366 437 422 371 389 349 328 326 312 295 287 278 278 277 276 276 275 281 280 264 261 262 264 266 264 269 267 265 267 263 263 261 269 276 275 276 272 268 266
230 237 247 258 272 295 383 416 399 388 347 327 321 314 298 281 274 263 264 266 259 263 253 254 259 258 261 263 266 271 265 263 262 269 262 272 271 263 263 262 261 263 264 264
195 229 229 247 268 278 211 135 343 349 330 325 319 312 309 289 286 274 276 265 268 265 269 263 262 265 267 270 272 268 265 264 261 261 265 260 265 255 261 262 259 259 258 259
223 234 244 232 246 264 184 330 347 331 315 318 321 313 305 299 290 284 272 268 267 263 261 258 267 265 265 278 268 268 270 266 264 264 263 259 257 257 254 253 256 257 257 254
150 236 243 232 251 259 300 381 354 330 319 306 307 325 317 310 302 291 282 273 267 263 262 264 263 256 258 264 268 271 267 264 265 258 249 260 253 253 252 254 258 259 261 262
226 232 227 237 240 254 250 383 369 351 329 313 301 293 303 306 309 304 292 278 269 264 267 262 262 260 263 260 260 256 255 261 258 255 254 252 251 249 257 260 259 268 272 273
227 240 112 229 135 258 260 322 368 357 333 326 309 299 292 289 293 283 297 300 287 275 269 267 267 262 263 262 260 257 254 251 252 252 249 249 261 259 255 272 269 269 274 299
230 241 242 236 250 249 255 290 373 353 337 322 320 310 301 290 286 284 282 284 285 297 297 284 275 268 265 261 259 258 254 255 259 262 260 255 262 274 268 272 286 292 301 293
225 110 242 214 244 240 271 300 372 358 337 328 315 318 312 302 297 290 279 283 324 284 278 278 282 288 287 283 277 272 271 272 275 279 281 278 266 271 278 265 292 290 284 282
237 228 238 249 249 258 266 323 398 356 350 330 317 307 307 307 303 303 302 287 280 276 300 312 277 270 277 276 275 274 273 271 269 267 265 268 275 264 287 291 284 279 276 275
243 229 247 246 239 258 257 375 399 375 347 328 317 313 304 299 299 295 295 296 303 291 282 274 271 269 269 268 269 270 272 272 271 272 270 265 288 284 279 278 279 275 272 278
240 239 249 245 238 258 289 397 402 377 360 342 327 315 304 295 299 295 287 290 284 281 288 291 295 296 293 289 288 284 278 283 286 287 290 287 280 277 276 276 276 275 275 276

GFSNGP_2pvu_pres_099.txt.gz
Presure
158 127 398 380 393 361 335 155 144 222 190 298 295 317 329 290 274 273 274 275 269 278 275 270 268 268 270 286 253 252 252 251 251 252 259 264 269 272 274 272 266 199 197 192
136 262 260 343 396 374 332 329 282 143 297 147 297 313 317 308 339 300 290 279 280 279 283 279 281 283 287 271 272 286 279 270 282 242 324 302 294 294 294 277 271 261 255 244
133 212 237 202 314 356 347 329 341 314 302 258 208 280 301 310 310 316 310 328 332 324 323 320 321 328 327 265 262 260 259 262 276 294 299 297 293 286 238 275 273 271 266 268
125 207 139 373 143 376 347 334 332 134 308 302 305 303 290 285 298 310 309 309 317 326 302 296 266 298 303 298 270 292 256 249 249 253 271 286 281 276 272 266 268 275 273 271
240 195 151 161 376 311 376 339 175 143 321 134 303 281 242 301 291 283 290 300 306 317 333 336 323 321 310 298 292 283 281 274 297 260 289 282 282 285 289 280 274 268 265 263
205 181 212 164 384 383 166 376 332 143 139 159 310 296 290 293 295 288 293 286 284 293 292 312 319 326 327 326 325 308 294 279 271 266 265 258 255 253 268 261 280 271 271 253
166 125 259 288 222 140 273 153 329 137 223 246 308 309 298 293 293 294 289 285 283 279 290 295 305 300 312 298 290 307 309 300 294 278 272 269 264 265 274 270 265 257 260 265
224 227 249 152 132 140 388 367 346 204 127 201 302 296 305 301 293 293 287 281 278 278 279 280 280 290 296 288 290 295 288 281 276 274 272 271 263 266 267 261 262 266 274 272
177 220 174 272 250 403 358 378 355 336 132 125 133 297 297 291 292 294 283 281 274 268 275 277 282 282 282 281 279 278 277 273 266 263 264 268 271 266 272 278 274 272 273 275
162 177 203 167 159 407 400 350 339 363 341 126 129 315 316 318 286 288 288 275 273 270 270 270 266 271 271 269 266 268 271 269 269 270 267 268 276 285 290 295 287 288 287 284
169 210 223 134 275 267 295 380 345 335 322 364 215 323 323 308 309 298 288 285 283 269 270 270 271 275 277 278 283 282 281 284 286 287 281 285 319 322 322 319 314 311 307 297
164 222 208 253 248 272 292 376 355 348 323 328 360 337 299 330 310 301 301 291 287 291 287 284 283 285 315 314 309 296 299 300 301 300 296 291 289 288 288 288 287 286 286 285
145 135 229 228 258 266 182 402 361 347 325 333 340 372 335 325 315 304 294 292 291 287 282 294 304 296 298 292 291 289 288 285 278 276 276 274 277 280 280 280 277 276 274 269
155 175 221 220 252 273 276 445 437 349 329 351 336 330 334 315 299 296 286 283 277 275 275 282 276 278 278 277 273 271 277 275 265 274 289 287 295 304 305 300 294 294 294 294
157 235 196 243 240 269 266 260 516 395 357 357 357 333 312 308 293 294 287 277 275 276 272 270 273 264 268 271 274 272 268 279 284 274 265 267 265 273 273 266 282 289 304 320
149 213 227 233 243 236 246 271 347 391 366 123 359 342 305 323 310 289 285 277 276 273 272 264 257 264 270 274 269 273 273 263 260 261 262 259 266 263 265 265 259 261 265 275
210 162 227 230 237 258 261 282 273 390 196 372 351 338 326 325 318 277 266 282 275 270 266 265 259 268 269 270 276 274 258 254 253 257 261 263 260 260 257 263 261 274 269 262
224 168 215 225 245 232 202 251 274 317 186 343 338 349 327 325 315 306 301 281 284 272 272 273 272 272 267 264 269 254 255 256 256 260 259 268 265 265 262 261 266 259 261 255
227 223 232 229 237 229 240 136 149 267 319 357 343 331 339 329 312 309 304 295 287 283 275 241 254 261 267 264 257 254 254 255 261 264 265 267 264 265 261 261 261 261 260 259
219 219 206 235 217 238 238 212 249 262 308 369 346 338 323 309 326 312 307 303 300 297 282 281 276 271 267 259 252 257 261 262 258 260 260 261 264 271 267 262 265 263 255 251
232 223 211 227 229 237 243 208 264 271 302 315 370 344 331 317 303 297 301 302 301 292 285 281 278 273 266 263 265 266 264 260 253 252 257 261 259 255 256 257 253 253 253 253
233 223 232 183 229 237 188 234 251 255 289 305 376 360 344 326 312 303 295 294 293 307 306 295 288 285 276 274 269 268 264 258 259 260 262 258 255 252 253 254 253 256 254 260
231 216 229 222 247 226 238 240 250 263 277 301 334 361 342 329 323 312 305 300 293 289 284 284 293 299 298 282 272 268 267 264 262 262 261 261 259 258 258 256 259 263 264 264
238 242 232 229 208 195 238 256 248 266 291 307 315 378 350 338 320 312 311 302 295 289 286 279 278 278 276 281 287 293 294 289 281 278 275 272 269 269 268 272 280 288 280 269
231 217 228 245 217 264 243 232 216 266 310 303 316 393 353 342 324 316 309 311 313 294 292 292 286 280 276 304 293 277 271 275 276 276 278 281 282 278 268 267 268 265 266 272
212 233 192 234 231 242 245 264 232 264 299 308 321 394 364 348 323 320 305 305 304 302 298 296 292 290 281 282 278 276 283 281 281 274 270 270 270 270 267 267 268 266 266 275
239 221 202 238 226 249 242 225 241 298 314 310 353 392 374 350 334 318 309 306 304 293 293 295 289 284 290 291 291 286 282 278 274 271 271 271 270 270 269 271 273 281 283 290

GFSNGP_2pvu_pres_102.txt.gz
Presure
150 281 324 110 124 155 376 362 353 346 282 144 299 243 315 319 289 289 284 278 269 272 279 280 276 270 288 291 281 281 285 274 248 237 232 231 233 237 238 234 220 224 223 207
126 110 275 134 207 143 236 385 364 346 329 138 261 227 151 319 340 294 277 276 281 275 263 261 267 292 270 281 281 283 282 283 284 301 285 266 275 273 274 275 227 237 242 256
148 243 170 334 172 184 142 391 370 362 323 325 172 254 272 294 286 309 290 283 284 271 267 264 264 270 261 260 265 271 276 289 281 273 256 257 260 279 266 252 252 252 262 264
197 155 125 224 282 193 386 257 354 296 329 326 141 238 135 206 296 203 228 303 280 292 308 289 259 275 274 276 275 276 280 275 282 254 251 265 254 265 261 267 258 240 242 289
186 183 128 264 301 142 244 136 345 171 330 332 268 150 254 304 287 288 287 306 306 309 315 319 309 302 289 278 277 281 331 282 293 293 274 268 255 265 249 259 261 256 276 271
147 212 162 264 168 289 160 380 170 346 327 318 317 308 138 320 304 296 288 286 282 288 292 307 312 313 315 318 287 256 270 295 258 266 269 280 306 298 289 254 261 292 256 256
215 177 180 226 281 161 284 239 237 365 254 335 318 133 284 290 306 290 292 308 290 289 278 278 198 289 295 303 322 333 333 322 303 295 296 289 288 255 279 280 274 260 269 274
154 156 169 140 233 289 207 401 392 343 352 140 322 131 131 134 135 143 294 287 295 305 290 279 214 291 289 280 291 314 307 308 312 310 317 315 315 308 300 302 278 275 273 271
153 138 158 191 150 195 297 294 355 388 227 344 345 225 315 129 290 283 294 293 287 287 290 288 280 206 284 255 285 296 285 282 295 294 296 297 288 289 282 276 274 273 273 270
122 148 201 159 156 142 189 223 252 401 348 355 335 337 158 311 300 289 294 277 287 285 278 276 277 276 274 196 278 275 274 280 285 281 275 271 271 276 273 268 266 267 269 265
123 188 130 157 143 249 204 194 284 412 376 340 369 332 310 329 320 308 297 290 294 277 284 277 274 266 267 266 237 225 265 267 268 268 268 270 271 272 272 271 271 273 277 283
127 152 165 191 161 219 254 225 262 374 394 355 331 331 345 341 328 319 320 324 310 289 279 285 267 269 266 268 264 258 260 263 264 259 263 268 266 269 276 282 279 298 306 299
155 150 158 138 233 232 237 143 263 307 426 369 327 326 326 334 365 334 303 271 301 302 303 279 281 275 267 265 265 269 271 292 278 280 282 283 279 296 299 294 288 284 277 278
234 141 128 160 242 223 212 270 225 292 449 422 380 353 154 138 369 345 322 306 329 297 299 303 299 286 278 281 288 296 302 301 294 292 290 291 290 283 276 274 270 282 284 296
176 200 151 193 234 207 223 239 253 276 227 376 386 308 125 341 340 316 316 305 312 297 296 286 287 283 279 274 275 278 276 276 276 276 273 270 271 265 267 281 275 271 266 273
148 169 163 224 224 210 215 263 223 224 254 285 301 361 368 340 335 322 316 294 301 293 284 283 278 275 272 269 268 269 272 272 271 273 275 271 268 278 270 263 261 261 263 264
191 167 181 232 235 227 226 215 233 240 226 238 126 326 387 349 349 334 296 312 294 296 285 277 275 270 268 268 264 268 268 266 270 273 268 268 273 264 260 261 261 261 263 263
200 198 204 226 212 216 232 230 243 256 265 242 257 312 318 357 349 349 332 318 308 291 279 260 268 250 270 267 267 251 247 258 261 264 265 273 266 259 253 254 256 258 266 265
163 180 221 221 244 215 202 225 237 224 249 125 273 301 321 322 354 332 332 325 317 313 290 278 280 274 266 267 267 267 263 264 265 263 265 268 253 255 256 255 261 264 267 264
227 178 202 225 222 223 204 239 229 225 221 254 267 310 301 299 354 344 325 305 319 308 303 297 295 284 268 275 272 267 243 251 255 260 262 262 259 258 254 265 261 268 266 264
170 213 244 180 217 210 235 232 217 216 229 253 271 289 301 313 314 375 346 326 303 296 303 301 291 290 287 283 280 268 269 267 266 261 262 255 250 251 255 259 258 258 256 265
169 180 246 234 222 234 237 205 219 213 239 249 264 273 319 299 311 351 362 343 326 309 306 309 303 298 294 290 285 285 283 283 274 264 261 258 262 264 259 256 256 255 259 259
158 216 233 227 233 202 213 224 211 224 229 227 271 280 303 304 309 321 362 352 332 322 316 301 293 291 294 295 303 306 304 301 294 282 273 266 260 262 263 263 259 254 254 262
229 174 221 223 219 188 224 225 241 247 248 225 253 301 299 320 307 326 355 344 332 317 315 308 304 302 295 290 283 282 278 276 280 294 293 288 274 268 266 266 265 264 263 263
202 177 236 220 238 246 214 196 221 222 237 252 295 324 311 327 316 387 383 347 341 322 320 302 297 298 300 294 292 290 284 279 279 282 274 272 275 279 286 289 288 286 282 283
233 157 233 249 224 233 219 233 209 267 237 265 271 306 337 312 405 394 381 353 327 331 311 308 305 304 304 294 288 289 287 288 286 282 279 278 289 294 285 282 278 281 285 287
239 227 226 229 247 211 214 225 234 229 250 273 254 323 321 345 405 416 387 359 339 323 316 306 301 298 297 299 291 292 287 287 292 290 284 280 279 278 277 277 278 277 275 271

GFSNGP_2pvu_pres_108.txt.gz
Presure
137 189 120 187 150 370 182 319 151 379 164 156 322 291 281 252 144 178 277 279 281 292 279 250 250 239 230 200 219 217 200 170 192 201 201 190 189 191 192 193 157 168 167 166
199 223 181 249 145 152 122 411 339 134 313 374 384 354 186 290 282 212 144 141 278 267 266 286 280 252 248 244 228 228 228 214 215 210 213 213 203 201 191 200 199 193 192 190
172 164 200 169 160 162 258 189 446 155 122 357 355 361 361 349 313 302 279 200 208 178 139 169 162 255 286 267 247 238 240 228 223 224 218 190 216 214 206 202 213 203 210 210
201 113 185 227 176 142 146 215 208 280 220 226 232 353 362 364 337 335 318 293 133 154 197 263 264 220 266 195 282 280 257 235 227 219 221 214 203 203 205 209 205 204 208 204
181 186 155 139 173 208 208 152 138 138 353 129 128 360 187 352 357 342 329 327 290 127 270 261 260 270 275 283 263 263 273 275 270 249 237 231 211 214 217 222 224 224 216 215
174 194 161 156 147 136 165 115 140 150 163 136 137 278 336 334 355 339 345 318 316 133 259 275 261 272 264 262 275 255 261 263 265 277 273 271 250 231 253 249 250 275 249 250
198 181 186 147 133 148 135 243 257 197 183 311 387 213 236 344 341 341 328 329 331 327 206 243 162 221 291 284 273 261 259 255 259 264 266 263 262 269 273 271 288 270 276 273
179 178 164 180 159 158 129 131 159 187 147 145 308 251 373 353 336 324 322 328 326 330 317 132 128 129 300 305 318 294 278 279 285 290 274 273 274 270 281 242 290 288 295 266
178 192 152 153 146 132 220 132 129 276 145 258 337 257 403 365 352 334 298 320 311 314 306 127 121 141 302 303 295 286 290 296 288 295 323 324 312 310 311 309 312 173 294 317
178 188 151 148 224 131 247 220 118 189 267 126 142 148 399 377 391 384 337 321 308 305 302 312 310 308 303 305 299 294 292 285 296 299 299 297 297 302 307 308 313 312 314 325
169 185 195 189 148 151 149 132 242 237 176 175 239 278 308 394 361 378 372 352 323 311 301 304 293 286 292 296 295 295 290 290 286 286 280 281 288 287 286 268 280 279 283 277
184 158 141 149 141 154 171 129 237 131 122 159 225 255 234 315 376 359 360 367 359 341 317 306 298 295 304 295 288 285 290 298 283 283 285 280 277 277 281 277 270 267 267 272
171 216 166 160 160 126 176 185 140 195 198 222 244 181 272 292 302 344 357 353 352 327 332 343 316 307 307 286 287 290 286 278 276 278 276 273 270 270 263 272 271 273 266 266
179 151 169 151 191 142 208 151 237 193 234 161 247 275 204 229 299 314 322 353 346 344 334 332 329 334 325 310 297 285 293 276 277 268 272 272 266 264 265 265 262 260 261 258
186 137 141 140 181 173 173 145 195 218 132 260 222 226 252 252 231 120 297 324 360 353 357 337 335 337 333 315 310 313 307 285 281 271 273 279 264 265 263 262 262 261 262 258
165 199 213 140 142 142 134 131 226 237 254 265 237 209 233 241 198 245 291 298 299 305 351 349 328 312 328 306 316 292 302 297 299 301 290 289 281 270 266 265 263 262 260 258
171 158 141 127 214 134 200 132 169 216 243 243 215 222 216 246 212 260 291 317 302 293 313 335 343 321 324 306 316 311 303 303 287 277 289 290 265 275 274 284 261 264 276 272
152 180 164 145 164 156 176 236 245 228 220 225 240 239 236 225 235 231 255 293 314 297 309 307 321 330 322 307 295 300 289 294 280 283 278 277 279 281 273 272 271 267 263 264
163 160 159 173 148 156 193 175 207 225 211 228 241 238 248 231 250 251 257 265 284 299 315 336 313 323 321 331 326 306 298 287 287 282 273 275 273 264 267 262 259 259 261 257
209 152 154 158 172 199 177 177 178 245 237 239 247 235 204 224 234 232 260 237 288 296 342 335 317 323 311 316 321 323 307 304 287 284 271 272 273 271 261 262 265 260 254 254
174 144 158 170 151 154 170 162 166 246 235 240 237 240 230 252 227 256 265 239 295 315 309 350 346 330 329 311 317 310 309 314 306 288 278 278 273 268 267 257 253 262 262 256
187 123 154 155 154 169 231 220 206 177 234 256 234 249 235 234 255 234 257 292 293 306 306 356 349 329 340 331 320 328 306 293 297 303 298 298 281 273 273 271 267 268 266 262
132 145 174 149 182 210 173 231 183 238 237 242 232 248 239 249 227 265 258 247 295 312 341 371 354 360 352 339 339 349 322 310 296 291 291 288 292 295 294 288 284 282 284 285
202 140 170 150 142 173 172 227 238 203 223 233 207 236 236 258 240 222 265 316 309 318 391 381 377 368 357 365 341 346 316 308 312 309 293 295 293 296 293 301 311 320 313 311
129 195 168 155 169 218 228 238 227 252 228 251 246 241 236 254 245 273 250 310 321 399 397 392 382 369 360 369 354 343 313 320 304 298 304 304 303 301 294 286 287 280 277 278
122 173 163 178 207 163 193 234 196 235 233 246 238 233 213 249 238 260 332 320 415 415 415 401 383 370 372 392 363 338 318 317 304 292 296 292 291 294 291 295 295 289 286 285
162 158 169 204 221 227 244 221 242 228 231 247 262 246 244 233 259 265 329 429 431 426 416 404 385 382 401 387 376 348 332 321 308 295 298 291 289 282 283 286 290 289 284 283

GFSNGP_2pvu_pres_111.txt.gz
Presure
157 218 174 209 248 152 152 137 412 143 258 208 376 333 314 298 278 285 180 202 168 252 239 238 223 216 199 191 209 204 215 203 204 234 220 182 222 205 197 209 205 201 194 184
179 185 172 149 266 177 168 174 375 407 124 118 398 370 350 314 307 304 278 239 235 152 143 144 217 215 222 220 220 193 224 204 215 215 183 199 228 223 216 185 167 169 169 175
190 192 162 164 178 178 160 192 253 183 272 124 146 238 152 320 309 307 309 283 232 239 233 238 229 190 196 139 161 190 217 218 212 204 198 205 206 203 194 191 190 189 191 193
174 202 185 165 187 143 174 149 146 197 150 140 359 119 122 367 337 298 299 301 300 277 242 233 227 230 172 186 216 188 217 225 202 212 203 199 194 192 185 184 200 203 196 205
188 209 174 176 222 162 140 225 143 252 143 114 312 115 118 330 325 346 308 297 297 297 262 251 238 226 124 223 230 215 212 218 215 173 217 218 201 199 217 209 211 216 205 201
195 193 193 176 176 183 151 151 233 125 261 145 137 274 360 123 373 163 372 362 303 298 292 255 248 240 234 218 224 225 212 217 216 212 207 205 207 148 210 217 212 205 204 199
209 199 200 190 163 182 149 192 140 199 136 265 129 138 127 403 130 178 227 360 238 306 303 297 304 303 276 239 170 127 164 128 161 226 225 233 213 208 213 212 214 215 212 210
189 195 185 195 182 160 150 148 133 161 128 132 149 260 169 400 385 127 300 355 351 347 352 353 329 298 293 282 291 280 173 125 129 229 230 224 226 228 228 225 224 224 226 227
183 194 143 177 229 175 162 130 145 125 161 239 129 143 259 135 391 379 123 174 229 348 343 334 335 343 354 340 322 184 126 127 237 298 281 284 277 267 275 249 246 257 264 273
186 189 189 120 189 148 153 152 130 182 140 153 126 136 246 252 203 406 402 377 348 331 329 329 334 337 333 333 327 321 322 320 319 297 292 279 270 269 268 276 281 286 276 271
184 185 192 191 205 199 188 135 187 228 137 240 102 246 236 269 233 291 371 375 411 371 338 329 322 321 312 317 313 313 313 317 316 312 305 304 305 303 301 299 296 300 304 308
187 177 164 194 193 186 164 143 153 217 185 199 160 173 242 268 278 233 276 312 359 389 388 350 328 316 312 311 302 311 305 305 304 302 305 293 290 290 294 296 291 286 284 283
180 179 186 177 177 129 121 171 126 172 144 189 171 198 247 272 257 267 249 288 305 323 321 364 370 359 323 315 303 301 296 289 284 286 302 294 290 293 287 280 282 281 283 286
177 178 171 183 155 188 154 173 180 128 131 130 149 253 262 244 222 262 263 247 296 276 303 362 362 347 344 341 334 311 300 292 286 292 287 288 283 283 289 282 275 273 274 272
194 144 177 192 162 158 158 161 132 165 160 145 260 181 235 243 246 259 271 239 255 289 300 341 336 364 354 333 323 325 324 319 311 291 282 272 279 284 287 277 275 271 267 260
182 176 204 189 142 135 136 141 154 139 224 174 183 223 228 235 229 237 245 250 279 248 284 302 312 312 351 358 337 329 325 327 326 308 312 302 275 277 276 273 274 264 262 263
199 165 171 200 162 199 172 193 129 151 239 160 221 221 235 248 236 244 249 228 260 276 295 289 319 304 320 323 323 338 309 307 315 302 315 321 305 297 298 291 277 272 262 265
168 184 183 163 161 148 137 165 162 160 189 216 158 222 246 246 245 245 225 244 257 260 265 294 295 334 299 329 316 320 320 316 306 293 304 304 300 275 284 280 284 277 284 286
194 155 188 161 158 152 140 194 167 188 201 172 172 219 244 228 244 230 243 236 251 261 246 296 302 300 308 342 324 309 319 312 325 301 291 293 284 290 289 281 278 280 276 278
190 140 186 183 167 175 162 185 161 166 167 165 158 213 240 224 230 249 231 258 263 257 250 299 291 338 365 336 336 322 306 319 308 308 325 290 286 284 284 275 272 268 266 263
201 175 170 200 170 147 157 189 154 179 208 177 209 213 232 259 226 247 225 225 253 240 290 300 301 351 356 358 347 336 322 305 307 308 305 318 291 290 282 276 276 268 264 266
190 195 176 198 134 158 154 213 179 158 167 241 239 226 241 232 236 231 249 233 244 242 305 305 310 388 375 370 360 349 333 328 310 318 319 307 311 298 295 281 277 277 267 266
163 183 163 154 184 179 160 153 217 155 207 238 183 226 245 236 228 244 236 263 242 241 305 310 361 404 393 381 374 370 348 335 335 329 330 319 302 299 295 303 292 277 278 273
134 152 142 128 154 204 151 198 161 206 221 256 237 242 229 239 236 234 234 254 266 280 265 320 435 423 410 396 384 377 371 357 354 348 333 322 315 307 299 292 295 291 290 291
144 145 139 142 166 157 152 210 176 185 238 232 235 226 241 217 216 243 227 230 262 265 312 454 443 435 423 412 402 389 371 369 355 372 344 340 318 311 311 303 291 291 291 285
155 155 136 143 173 158 178 157 201 196 189 231 233 245 224 224 248 245 238 253 263 309 331 462 454 445 427 435 423 398 382 366 388 346 335 338 320 311 306 310 316 309 307 299
161 156 158 146 182 189 175 185 228 237 231 236 231 236 238 252 246 224 228 273 293 388 430 398 379 368 360 350 417 408 400 376 391 345 351 327 315 318 296 305 296 302 297 290

GFSNGP_2pvu_pres_114.txt.gz
Presure
182 173 156 166 242 213 159 183 166 143 308 337 136 314 303 176 298 302 292 273 259 244 232 219 225 215 219 204 209 201 189 188 195 194 195 192 194 203 198 193 182 181 182 187
149 154 220 194 139 160 193 170 167 160 156 134 341 141 126 151 119 294 290 292 286 284 250 224 203 139 205 200 202 209 208 199 185 202 203 193 202 192 190 189 187 188 192 193
149 190 183 172 199 203 169 156 167 151 152 146 285 135 356 145 129 179 305 257 295 239 240 255 229 203 218 163 185 201 219 201 198 199 185 193 187 190 198 207 185 192 188 192
148 213 179 184 193 192 196 194 171 284 155 222 141 140 177 133 115 145 237 285 263 284 270 274 270 226 223 215 212 212 203 144 166 141 174 164 203 167 191 184 214 208 194 192
205 201 205 198 184 171 258 167 203 205 208 258 135 127 150 131 185 280 118 127 126 290 269 155 260 284 224 219 217 211 216 192 126 188 214 182 180 200 202 198 197 197 201 210
206 201 173 156 182 170 231 169 154 182 162 159 136 167 135 256 238 176 125 152 135 127 262 266 209 255 268 243 259 229 216 199 210 228 210 208 200 196 122 134 192 195 189 148
203 203 201 186 209 170 182 165 223 159 188 150 130 127 241 141 201 201 255 127 121 308 131 219 281 263 267 256 261 266 253 228 215 216 213 155 195 157 188 122 204 205 210 204
186 185 191 189 198 194 188 137 188 137 141 220 248 159 208 189 245 254 310 419 425 403 380 352 163 349 278 263 270 259 253 236 257 234 221 234 228 131 220 157 211 216 208 213
194 189 188 197 196 188 156 182 143 147 177 100 136 196 269 252 288 292 254 331 423 410 395 374 363 360 354 352 291 295 287 262 235 261 256 245 232 215 217 229 233 227 203 218
189 189 187 175 197 189 176 152 150 152 147 170 127 226 128 252 143 139 291 261 265 337 359 388 379 365 358 356 347 337 335 281 257 239 276 233 223 243 256 226 234 215 222 224
190 191 189 190 180 184 198 156 181 183 148 127 132 131 144 118 149 247 277 265 288 294 295 346 395 372 362 352 342 337 339 338 337 285 328 283 251 239 251 230 267 263 259 229
192 187 194 184 176 191 158 175 201 158 151 164 128 153 131 155 254 243 258 269 257 252 282 278 311 349 403 362 348 339 336 187 319 318 317 318 316 309 311 284 237 229 228 227
195 190 187 205 173 198 183 149 142 139 163 202 134 146 132 139 211 269 249 236 270 258 245 280 250 293 331 342 384 359 334 320 320 311 302 306 303 298 300 294 297 303 292 288
195 190 190 186 153 160 174 142 195 205 136 172 168 178 135 136 234 240 207 241 264 258 246 265 294 303 295 300 323 367 359 355 331 313 312 306 301 300 295 297 298 291 292 292
200 192 198 168 149 194 206 168 165 199 143 139 129 185 133 209 249 257 243 237 254 249 236 239 267 279 298 306 306 346 356 361 345 333 332 323 298 293 285 290 290 282 293 293
226 196 146 202 184 179 194 171 160 155 140 149 167 129 166 160 232 238 236 251 231 261 263 247 254 272 293 292 298 311 350 346 365 348 332 316 319 322 295 289 284 279 282 277
221 211 194 191 205 173 198 193 180 175 152 148 153 182 167 161 236 235 247 252 224 247 242 223 244 277 287 298 294 307 347 333 321 324 326 320 317 315 330 323 305 314 292 280
224 225 198 200 181 187 155 158 148 159 142 158 178 189 167 227 214 227 238 237 241 242 242 267 258 250 280 295 303 363 348 340 327 316 309 316 312 309 300 308 306 309 305 302
221 222 219 196 193 177 187 204 148 137 142 189 177 223 196 169 172 233 244 241 249 251 259 238 229 274 281 304 352 372 357 344 329 325 316 306 312 305 302 295 293 305 303 301
211 224 199 194 200 193 162 174 140 192 196 160 165 193 235 176 233 216 238 246 236 249 233 227 237 275 266 330 389 370 375 358 346 320 321 316 303 308 318 305 302 290 292 293
218 224 218 180 143 204 175 205 128 143 184 153 156 185 198 179 215 224 227 248 248 246 260 237 241 271 291 383 416 400 389 376 356 346 329 315 317 304 310 306 315 296 290 282
225 223 209 199 131 177 138 160 139 140 162 207 190 210 176 231 231 228 225 239 241 246 252 251 258 287 297 446 436 425 411 397 382 364 349 339 324 316 307 308 310 317 299 289
231 223 207 190 140 163 150 124 206 147 157 172 184 162 208 227 221 222 216 240 255 235 246 247 273 276 324 467 462 453 440 425 409 393 377 364 347 332 318 308 307 305 316 296
225 219 174 193 124 189 153 133 140 149 172 211 198 190 216 243 224 224 235 249 248 233 258 259 254 285 471 427 401 386 385 441 429 413 396 382 372 362 334 322 308 306 314 307
223 198 198 184 154 196 133 155 174 150 201 197 202 183 222 230 224 227 231 232 251 251 239 238 270 290 428 408 387 371 362 358 348 421 409 393 379 364 347 334 330 319 317 308
198 190 203 188 163 161 167 146 169 170 151 210 177 199 224 223 225 234 241 251 237 251 264 255 284 398 416 400 380 373 373 358 344 339 400 384 374 371 352 352 333 324 316 310
201 201 204 155 197 141 134 185 179 200 160 213 199 223 223 219 226 246 230 245 245 237 247 285 289 426 410 392 375 368 370 369 361 345 334 385 380 356 374 357 327 331 315 307

GFSNGP_2pvu_pres_117.txt.gz
Presure
151 153 146 272 247 180 177 262 170 211 173 149 165 411 264 188 154 284 303 313 296 259 243 237 221 212 202 212 213 211 186 196 188 192 208 194 201 193 190 187 193 182 186 199
230 187 216 260 149 162 244 174 277 175 170 367 144 164 201 127 261 142 153 133 123 303 134 224 212 215 193 220 185 200 207 213 197 204 189 190 194 200 181 203 191 173 170 174
205 171 200 191 222 212 217 236 265 176 203 112 166 265 227 155 213 129 256 147 250 281 114 260 191 138 174 213 211 204 208 206 202 203 196 201 190 192 189 190 189 180 186 198
212 217 203 213 210 173 173 204 256 226 240 162 213 259 146 140 130 264 120 216 201 125 224 230 127 216 218 228 210 211 228 211 205 202 198 188 195 186 187 195 164 158 187 184
201 205 196 202 184 194 165 219 168 131 172 194 141 153 148 131 132 243 143 120 126 288 277 114 265 119 226 224 215 158 141 207 200 211 221 208 192 183 127 127 187 208 124 197
131 204 193 203 217 172 193 196 205 211 173 165 184 210 274 137 154 258 127 132 125 399 126 307 127 273 141 139 126 189 208 238 225 232 210 199 206 217 195 193 214 216 213 186
152 203 196 186 197 208 212 173 172 165 155 158 168 198 200 149 199 266 261 289 141 110 309 257 129 253 284 287 271 252 123 231 251 232 219 233 200 198 209 210 208 208 211 199
203 196 201 193 198 191 211 186 161 179 155 200 163 131 190 222 123 208 221 216 209 108 363 472 449 416 404 299 327 253 257 257 246 226 240 222 222 229 223 212 212 207 214 217
197 199 193 199 192 175 198 206 170 164 143 173 150 131 119 165 195 120 148 145 159 240 321 270 246 434 431 151 413 383 283 273 294 242 240 229 223 230 198 202 208 208 206 195
200 199 198 195 199 190 192 190 163 176 133 144 193 231 146 150 168 128 217 131 235 257 144 266 303 112 317 348 413 397 388 385 375 314 286 317 253 254 254 240 231 230 218 213
210 200 196 194 189 191 181 195 187 160 186 149 156 147 155 134 229 160 119 243 268 226 245 256 258 229 307 320 327 335 383 378 370 358 351 350 302 265 279 277 279 254 263 274
217 210 204 199 193 190 189 195 200 189 153 151 159 138 134 159 159 136 153 138 225 253 275 260 235 265 225 264 297 298 319 327 369 360 348 338 334 334 330 323 323 323 257 247
224 224 220 208 198 198 189 164 198 187 155 143 142 198 137 159 190 139 130 251 237 241 247 247 265 257 247 245 289 294 307 395 332 383 378 341 327 328 320 314 310 310 315 321
224 224 228 226 223 200 198 185 198 196 206 182 148 146 135 147 211 137 141 217 232 245 242 137 256 239 259 237 282 286 306 347 368 351 341 355 351 331 314 307 302 299 298 295
223 221 219 223 232 140 196 191 179 177 195 168 187 153 206 172 137 185 204 223 244 187 244 233 237 254 266 253 249 259 288 325 358 365 353 338 321 345 338 325 302 300 292 292
227 226 218 217 225 224 222 203 183 196 209 167 148 131 139 193 165 154 178 212 235 228 231 239 243 250 223 248 239 252 284 318 344 371 358 347 339 317 355 331 320 315 303 287
223 227 219 221 219 144 229 223 214 181 190 177 185 158 150 134 170 178 197 198 233 229 231 233 239 250 249 258 241 249 283 326 354 369 354 347 332 328 314 328 333 303 306 306
222 224 223 230 214 221 222 224 219 191 178 149 146 144 169 161 160 200 200 185 219 234 225 230 245 250 239 257 240 249 284 348 380 370 370 350 338 323 317 311 309 311 307 311
228 222 230 232 217 223 215 224 202 170 200 160 151 148 165 159 203 209 199 199 209 230 233 229 246 245 252 267 257 251 285 414 394 393 379 364 351 333 322 313 304 301 303 301
230 224 224 226 225 214 216 224 214 211 183 204 139 131 142 178 191 186 213 192 203 229 218 225 242 239 228 252 255 254 291 442 430 425 402 387 369 355 335 323 312 305 299 302
222 227 227 224 226 223 219 225 208 211 183 181 191 159 168 182 176 182 208 195 204 226 218 221 242 240 236 253 257 266 322 475 467 464 447 432 400 378 358 340 322 313 308 301
225 226 223 232 230 222 226 226 221 213 158 137 168 188 173 155 192 157 217 202 203 225 227 230 251 254 240 249 254 261 335 496 418 400 385 447 447 419 391 362 343 321 316 310
209 221 222 233 234 226 222 225 186 160 204 160 156 168 151 195 190 200 203 214 216 208 235 242 239 246 247 267 251 282 351 425 408 390 371 369 356 438 422 397 369 341 321 315
192 225 222 231 231 221 229 220 155 186 163 140 145 172 151 172 172 210 198 204 210 233 229 242 249 246 241 266 257 275 435 418 402 387 378 383 360 345 423 410 395 376 349 322
208 224 225 235 226 223 187 215 172 220 163 138 154 168 164 199 200 202 214 207 207 232 246 232 248 246 261 253 282 338 423 409 393 378 373 381 377 351 351 407 396 384 369 357
216 208 233 232 223 225 181 162 199 183 157 137 161 185 191 169 203 207 196 219 219 229 243 259 246 240 253 269 278 432 422 406 388 377 365 368 366 368 347 392 391 382 374 364
231 196 230 225 226 133 217 131 132 217 170 133 188 192 176 204 217 212 207 206 229 244 233 252 249 256 252 268 347 421 417 399 391 375 366 360 364 353 358 370 387 371 365 355

GFSNGP_2pvu_pres_120.txt.gz
Presure
158 153 155 134 192 263 187 142 174 185 186 168 425 164 333 289 254 172 234 154 167 124 253 259 249 211 212 203 199 225 209 181 205 179 203 202 188 179 183 211 190 200 177 179
192 233 209 158 190 235 191 187 186 305 214 163 323 313 167 332 155 141 132 290 279 159 114 109 179 285 218 203 201 223 237 209 209 209 179 184 202 191 210 187 175 194 201 201
153 201 222 216 158 205 211 191 174 253 276 322 166 189 191 143 135 131 162 135 126 124 134 132 126 124 286 211 158 179 184 218 216 204 190 201 208 195 183 189 160 177 188 190
157 205 210 172 194 181 195 211 173 213 169 291 224 159 268 319 153 143 267 320 154 135 137 139 163 277 124 250 129 119 217 185 159 211 212 226 197 207 208 187 196 200 195 199
142 202 204 196 213 201 173 175 172 193 202 117 168 224 294 270 154 137 135 129 133 124 119 249 128 137 259 246 134 125 229 126 178 184 185 141 210 192 191 184 188 209 212 207
150 205 195 198 206 195 209 220 183 202 144 171 189 173 259 270 281 267 136 127 128 368 477 139 334 302 156 132 145 245 204 192 209 221 213 202 215 193 189 212 189 209 189 188
142 195 161 202 202 189 202 177 177 180 193 166 179 177 159 143 262 182 159 182 187 171 217 131 271 351 344 364 300 304 309 257 245 213 212 199 197 191 187 201 186 205 200 189
205 204 201 200 197 192 191 198 211 186 195 147 169 161 164 150 139 206 153 125 158 230 142 128 174 326 332 351 282 466 398 295 295 229 254 216 213 211 214 205 210 207 198 205
144 212 175 203 200 187 199 194 190 200 168 178 172 151 145 177 127 109 159 136 131 137 129 145 295 165 257 318 329 318 145 360 394 427 398 269 271 252 241 224 235 209 211 211
224 200 219 204 202 200 194 192 186 204 212 168 161 150 161 143 181 146 142 155 131 130 244 114 202 123 244 195 214 249 310 319 349 443 379 420 410 328 283 241 245 220 216 214
183 134 133 226 223 212 203 198 195 187 195 172 181 156 155 140 133 164 191 133 138 148 134 150 258 257 239 268 278 269 255 257 274 324 385 394 369 388 383 375 363 255 237 224
228 195 227 224 226 227 231 230 215 186 161 210 197 198 157 130 151 136 154 139 159 138 221 157 194 153 249 265 225 263 261 284 266 279 325 378 374 355 380 365 354 352 352 351
220 227 227 226 227 228 223 226 232 230 196 144 182 209 169 154 168 150 140 139 182 166 196 219 213 245 234 254 259 252 271 274 263 265 285 385 370 368 352 342 367 348 339 332
224 223 229 223 227 225 224 224 231 138 216 194 205 202 173 162 170 207 144 132 146 200 202 217 222 221 234 243 250 263 250 260 278 260 280 336 384 362 356 346 344 328 360 327
228 226 228 228 220 230 228 222 222 232 232 222 189 208 168 165 217 157 154 153 196 136 225 201 221 217 229 239 242 258 257 253 269 252 266 288 368 361 352 349 341 326 330 342
215 229 228 225 227 224 234 224 224 228 226 224 224 209 210 189 169 173 146 132 141 197 212 210 213 228 217 228 245 256 251 250 259 252 273 280 374 369 372 362 344 337 321 324
196 208 228 231 234 225 228 227 224 223 215 224 227 180 191 173 199 151 154 187 164 181 146 214 209 228 232 218 236 229 256 249 250 251 267 285 387 403 384 367 354 335 329 320
199 202 225 233 235 231 227 227 238 232 213 226 223 205 181 203 152 190 131 152 137 201 180 215 210 225 228 217 235 253 253 252 250 258 265 286 429 421 405 381 365 346 330 320
169 165 178 214 224 222 236 229 232 230 235 226 220 187 227 171 158 182 150 149 178 181 198 216 207 226 214 221 229 239 251 257 249 264 275 328 463 437 428 409 384 363 347 325
169 171 184 194 193 217 231 237 219 228 210 231 229 221 230 217 198 135 136 156 185 200 201 217 210 225 214 246 229 235 253 252 254 270 281 492 491 491 476 444 425 398 364 348
163 169 208 142 197 170 220 220 235 233 234 227 233 197 169 228 162 198 136 147 145 187 202 222 218 226 212 228 237 239 253 250 260 275 286 483 440 417 400 381 432 441 407 370
230 169 217 210 190 204 195 209 233 225 242 234 219 227 225 145 182 141 167 136 197 183 200 213 221 225 213 233 236 246 259 251 267 283 302 444 426 409 391 375 360 413 439 401
225 161 161 218 211 174 207 206 210 222 234 236 231 227 185 195 182 139 133 150 171 202 209 206 221 220 237 244 225 242 255 252 275 285 435 433 417 399 386 378 383 356 340 415
238 230 230 227 214 209 201 193 200 225 227 238 163 231 146 222 171 134 172 191 215 181 218 208 222 218 226 251 235 249 253 261 277 300 425 417 409 393 380 371 378 376 348 330
241 144 230 229 223 213 183 201 209 207 217 235 163 128 221 212 188 137 156 201 191 207 207 210 225 234 226 238 239 259 250 265 286 415 423 410 401 390 377 367 363 373 363 346
246 238 203 226 226 220 210 198 194 221 202 186 230 129 154 174 203 209 162 210 183 209 207 223 225 235 245 233 240 263 257 270 414 430 421 411 398 384 375 365 360 355 362 352
249 244 240 224 195 224 219 181 191 213 211 203 210 162 158 191 168 175 208 221 198 203 213 235 235 248 223 238 256 253 269 308 476 466 450 430 413 397 381 367 359 357 352 353

GFSNGP_2pvu_pres_126.txt.gz
Presure
157 155 171 201 153 161 143 185 196 188 184 185 239 241 218 212 171 258 260 282 252 260 267 164 213 254 262 244 250 245 248 237 222 270 227 213 212 200 214 177 196 174 216 195
199 157 154 152 192 135 126 227 200 187 280 181 302 562 181 183 289 168 294 162 266 281 151 140 143 157 152 248 177 111 113 114 181 134 132 124 135 201 202 120 121 186 179 191
215 212 196 199 158 184 190 193 230 193 201 206 185 287 179 176 172 293 254 161 151 149 147 138 128 130 147 121 115 133 123 123 122 163 124 125 119 123 147 148 175 197 194 205
217 182 199 202 195 186 182 172 186 172 209 179 191 230 190 251 330 532 542 298 198 172 201 191 135 147 132 135 161 126 207 257 252 184 265 215 229 261 225 197 200 211 172 176
145 218 173 202 209 207 193 185 187 213 197 219 213 193 193 195 177 176 170 310 177 151 145 138 211 271 259 267 163 183 142 151 152 270 246 194 242 247 241 183 204 193 198 182
138 144 182 220 225 211 207 218 205 213 207 184 201 218 198 221 177 167 180 180 166 168 275 139 137 134 139 122 137 130 127 266 146 107 218 244 114 219 251 197 215 215 208 230
138 142 139 140 234 229 207 167 209 204 202 187 187 195 205 207 196 210 186 165 163 154 225 229 159 215 194 135 128 148 127 272 154 333 189 112 144 121 193 204 240 229 247 207
139 135 157 235 143 235 233 243 233 175 207 198 210 208 213 181 186 184 179 186 179 174 149 154 158 173 151 154 171 164 125 113 132 192 195 144 152 302 223 321 257 276 211 222
199 142 137 152 163 148 241 240 242 140 242 192 199 191 206 214 203 195 149 159 179 179 190 142 131 141 131 176 153 242 139 150 188 230 105 244 153 262 251 271 275 282 287 294
138 134 141 141 151 222 240 235 239 241 140 245 236 236 236 195 212 204 186 186 192 173 184 129 161 162 100 146 139 136 155 215 226 154 175 202 200 232 276 122 239 248 302 291
143 138 127 207 174 189 210 218 238 237 241 237 244 235 232 239 241 239 168 197 191 205 196 128 176 172 145 124 201 120 177 144 168 237 187 231 245 251 258 244 253 258 242 227
251 206 124 144 209 197 147 204 214 235 236 241 234 240 235 228 228 238 240 199 211 210 162 142 202 208 200 118 138 181 154 150 153 144 205 142 220 235 262 243 254 253 259 269
275 256 241 237 231 214 214 136 198 220 233 235 241 228 240 238 230 226 224 228 231 237 239 231 202 172 164 196 197 144 144 144 169 140 145 142 237 251 247 251 253 256 262 270
301 283 254 252 248 237 191 202 212 202 223 211 234 242 236 234 236 208 234 229 219 202 224 133 227 210 183 175 188 190 222 157 167 138 223 191 229 237 251 250 256 242 255 269
284 272 278 248 250 254 246 227 217 196 191 199 210 231 244 240 232 234 228 231 220 178 235 227 176 236 242 184 212 192 133 204 150 171 188 216 237 232 251 250 254 242 249 262
295 264 141 266 138 254 256 248 233 214 210 200 201 195 226 241 235 228 234 231 234 244 240 234 215 180 166 167 198 187 192 158 148 138 216 213 239 227 242 260 249 253 251 261
334 295 310 151 284 217 252 256 246 168 211 222 222 201 126 205 211 231 235 243 239 235 241 244 248 241 176 128 239 162 131 158 198 223 193 215 228 228 240 261 249 256 251 266
315 293 321 326 304 293 263 228 161 248 181 226 218 209 143 198 198 175 222 217 219 232 227 228 229 240 242 215 198 195 150 143 187 219 196 221 227 241 239 243 256 263 254 267
266 305 298 313 321 302 292 269 259 254 247 242 230 200 214 202 203 206 204 201 208 200 185 217 208 222 237 229 198 201 144 175 187 212 229 214 236 254 240 249 251 262 271 271
309 295 271 292 305 319 294 267 268 258 191 247 171 181 170 218 213 212 203 196 211 206 202 209 213 216 226 195 185 216 178 164 183 186 235 216 230 246 255 255 267 253 274 281
317 300 286 289 315 324 312 328 285 265 254 250 171 162 158 138 223 218 208 212 208 204 219 215 214 194 166 188 176 207 163 170 193 209 239 229 223 249 251 258 263 272 275 305
279 303 273 306 305 320 314 310 326 276 260 252 236 192 164 213 212 225 219 214 214 214 214 200 203 179 197 187 170 187 163 175 220 204 214 240 229 238 251 268 261 275 280 473
278 290 300 257 296 307 313 308 314 316 272 259 250 248 245 243 192 233 223 223 224 220 222 210 213 210 187 189 209 161 186 187 221 230 217 230 252 257 256 259 273 280 316 426
271 296 299 280 295 309 307 292 311 310 308 272 260 248 160 246 244 241 236 226 226 226 219 218 220 201 186 183 164 159 202 221 197 245 242 240 237 253 271 261 276 291 422 408
273 301 282 297 294 300 323 317 303 308 304 300 270 260 256 251 178 243 240 240 229 226 225 209 222 189 214 226 173 187 177 210 224 231 243 239 253 260 252 278 285 450 438 442
293 295 272 271 284 295 299 306 310 302 307 310 297 268 257 253 250 246 244 238 237 233 227 219 203 185 180 163 193 173 200 226 217 252 253 248 251 260 277 299 372 453 440 433
288 283 290 285 279 264 302 305 293 304 322 309 318 296 271 257 254 245 247 245 217 229 228 233 181 230 193 218 174 208 241 216 246 253 239 255 267 262 280 444 455 456 486 500

GFSNGP_2pvu_pres_129.txt.gz
Presure
143 188 134 146 188 209 151 148 147 195 258 357 186 360 222 218 261 248 294 272 249 240 286 266 271 274 257 168 188 250 242 234 249 247 258 234 195 218 180 171 204 202 188 198
140 163 152 149 144 143 142 151 237 200 173 205 194 192 385 183 176 172 274 247 262 156 267 262 267 143 141 176 272 261 249 235 171 119 117 128 128 220 220 215 210 202 120 120
137 164 201 210 185 159 148 165 204 182 140 187 235 253 259 186 176 277 289 288 236 178 161 152 182 240 147 162 189 156 126 124 118 126 116 118 125 242 222 178 205 211 179 203
138 161 241 209 213 210 197 154 169 202 133 166 211 234 202 205 187 177 177 179 220 279 256 154 148 208 144 139 132 131 129 125 224 132 167 201 258 163 182 111 184 224 222 209
135 143 147 135 246 208 192 211 152 191 190 135 217 221 199 216 213 179 174 179 174 409 491 274 156 159 235 255 266 240 262 198 144 147 139 142 244 226 233 175 152 154 123 209
135 128 139 141 146 149 218 247 210 126 189 207 173 199 211 235 220 197 186 258 237 171 172 174 252 147 144 146 135 133 157 157 161 133 130 126 125 136 114 234 192 227 150 109
140 172 129 132 134 140 232 248 208 245 221 134 193 208 189 195 197 189 209 193 195 209 217 169 179 192 161 142 137 135 133 144 127 123 125 134 228 107 137 126 155 120 128 239
179 152 242 219 169 130 172 143 147 213 143 243 241 201 203 201 201 201 196 211 203 224 164 183 192 194 183 159 153 155 161 222 146 153 143 216 148 120 129 143 139 115 172 288
290 275 250 246 143 222 132 137 138 136 220 246 238 245 240 244 191 216 210 208 204 199 165 155 222 212 154 153 172 145 176 161 154 156 152 181 156 160 213 236 163 159 144 205
259 304 285 263 253 229 130 134 215 179 199 142 244 239 243 235 240 237 196 232 203 188 221 195 199 195 190 152 145 179 206 168 122 137 134 221 150 158 200 131 147 200 235 252
264 327 279 272 260 253 196 136 187 186 203 221 233 242 244 239 237 217 235 237 236 186 193 231 183 214 189 173 170 147 194 161 119 163 174 121 136 172 124 130 235 235 221 219
270 250 340 300 276 265 258 133 205 200 201 193 199 227 240 243 235 242 238 235 235 235 228 227 228 193 201 125 210 176 187 184 129 124 218 180 141 175 168 205 160 213 228 229
273 275 234 318 303 277 272 261 251 243 237 228 195 199 221 234 236 242 235 243 235 235 238 234 232 236 240 169 240 234 193 181 212 184 170 194 186 168 143 194 171 200 246 230
271 251 269 286 309 291 285 224 269 257 252 239 232 220 211 202 218 226 239 244 238 238 232 237 228 243 245 236 236 240 238 172 125 169 203 213 186 191 178 188 228 201 238 233
271 224 229 251 309 310 267 245 263 260 264 186 246 233 227 211 194 184 212 224 242 239 239 240 236 237 245 243 242 242 241 241 187 248 188 203 217 159 140 234 177 178 231 225
234 226 219 191 217 246 301 281 304 289 138 271 256 250 239 232 223 208 156 211 219 219 223 238 240 238 237 234 238 234 229 236 226 239 212 174 179 148 165 171 190 204 233 237
224 200 256 199 109 233 238 308 290 313 249 283 277 212 253 243 169 231 225 127 209 204 208 210 212 214 216 214 218 225 229 226 231 220 231 202 238 155 192 207 185 210 240 242
236 240 268 256 209 252 184 309 258 227 315 309 288 282 268 159 160 162 209 220 206 188 194 202 206 210 214 203 216 217 217 217 219 221 172 190 147 184 201 177 232 225 237 244
251 192 216 267 109 230 271 118 304 320 268 350 229 294 276 164 258 249 243 203 227 221 215 212 208 206 207 213 215 220 211 220 224 193 198 145 188 175 167 194 208 231 247 254
237 264 247 269 244 232 235 115 287 324 293 316 322 210 306 283 273 262 250 246 205 165 173 163 214 222 218 213 203 216 211 222 224 204 148 176 239 163 165 184 215 227 249 255
269 254 252 258 270 244 228 146 285 303 314 288 338 321 325 303 276 268 265 255 237 173 226 234 228 155 221 222 223 192 224 198 223 163 152 222 170 246 222 193 247 240 257 248
254 252 253 257 285 292 219 268 267 292 321 300 299 329 322 320 317 276 264 261 259 164 210 241 238 232 173 219 226 224 218 193 225 153 228 223 188 240 217 230 227 254 260 258
275 264 257 248 273 279 261 263 276 176 300 306 286 318 310 316 316 306 278 265 260 255 253 225 226 241 236 231 229 229 227 230 160 195 226 231 180 230 206 233 256 263 248 258
259 271 260 250 280 268 269 287 279 273 307 315 294 287 321 327 313 312 303 277 264 261 255 253 250 244 240 226 238 226 237 232 203 235 177 177 250 199 255 253 251 247 265 254
280 266 238 247 271 275 262 275 272 272 295 287 278 274 279 301 321 315 311 303 280 264 262 253 252 251 250 241 236 241 234 152 218 193 181 195 205 213 235 240 256 266 252 271
227 255 255 274 278 257 285 268 274 287 287 296 290 287 279 282 304 314 322 315 310 287 270 264 254 253 248 244 244 247 210 220 247 219 174 238 240 224 240 256 262 262 272 292
175 231 254 272 280 267 294 276 287 292 283 305 305 291 293 286 280 304 302 314 324 316 289 272 261 252 250 246 199 152 245 247 241 172 238 219 228 240 253 265 261 277 293 317

GFSNGP_2pvu_pres_132.txt.gz
Presure
138 141 137 149 168 208 200 157 153 177 143 140 205 257 247 222 282 277 271 182 280 165 234 258 264 264 264 246 265 255 247 247 242 280 283 217 259 235 250 231 226 163 179 197
140 136 145 149 206 181 132 161 161 155 229 208 209 147 198 312 185 242 294 190 264 214 268 238 275 260 270 262 256 252 249 177 256 256 253 281 270 264 238 120 211 221 205 219
132 133 136 141 148 184 203 210 207 181 150 225 208 168 252 144 224 224 176 248 282 265 259 251 253 168 163 274 230 144 144 220 239 213 135 128 129 126 118 116 120 222 243 244
149 140 139 135 142 199 184 179 203 212 207 207 190 206 184 174 252 244 389 182 180 207 260 244 241 257 253 151 216 211 208 221 216 140 135 153 126 126 126 249 242 210 198 186
172 278 130 139 143 141 142 245 230 146 143 143 117 187 107 200 225 220 193 181 177 175 178 174 231 163 177 165 150 246 238 139 140 133 134 133 131 204 228 207 135 129 147 125
146 250 157 144 133 141 146 145 140 142 251 114 190 174 212 193 143 217 226 217 217 190 176 176 174 176 532 471 159 228 253 242 268 232 272 168 175 192 145 136 131 128 171 197
262 133 134 134 227 169 134 141 138 139 142 141 185 251 230 207 201 214 204 221 218 209 221 238 194 171 174 171 165 154 229 236 158 154 144 145 215 204 138 133 132 132 136 136
249 235 280 139 151 224 265 146 191 164 143 241 138 204 234 239 242 202 202 109 193 220 219 201 211 203 194 169 211 163 156 162 159 141 148 135 194 135 170 138 136 141 222 161
242 244 256 285 177 285 267 155 235 139 234 221 145 240 242 243 238 181 244 216 203 202 200 158 210 187 165 215 207 214 175 194 180 166 155 172 154 160 113 258 228 243 170 220
191 235 247 219 258 241 288 245 269 215 247 140 190 212 235 244 238 241 237 226 221 211 204 222 201 214 205 204 192 205 196 160 153 190 158 196 192 205 141 127 190 144 140 190
275 238 255 272 264 270 276 297 213 270 263 255 138 144 187 219 238 243 236 237 240 236 236 242 220 226 212 202 200 214 180 207 155 149 127 123 156 180 162 140 151 157 147 128
280 236 209 250 213 256 252 295 339 288 278 272 200 134 198 233 191 204 240 243 219 233 241 238 237 231 233 244 245 233 208 204 202 217 206 196 197 174 148 131 126 179 157 157
285 218 214 254 245 277 249 248 280 283 351 284 170 270 261 245 241 231 194 231 240 242 241 231 237 239 239 237 233 239 252 246 239 244 194 184 215 201 199 198 149 223 185 227
267 240 248 223 260 214 225 234 232 217 294 338 310 262 269 268 257 245 237 218 209 226 233 173 246 240 237 233 240 232 234 236 245 244 246 249 242 254 256 231 216 213 175 201
230 242 221 201 209 215 194 214 213 221 225 230 336 332 265 260 259 237 254 243 232 209 194 204 225 237 241 235 240 242 244 238 234 234 234 239 229 236 236 235 230 208 187 142
226 272 224 242 217 218 223 219 224 214 212 217 227 316 288 332 245 212 266 265 252 238 177 191 198 127 227 225 228 232 227 223 224 224 222 226 226 221 223 225 217 220 185 146
239 240 262 237 220 237 218 273 146 272 248 250 265 276 307 309 196 327 289 272 265 259 248 166 172 160 205 211 213 211 213 219 215 217 216 221 225 225 214 226 223 150 146 153
242 229 245 192 243 250 214 200 211 261 246 282 123 262 263 123 325 310 324 270 280 274 264 256 161 218 232 207 197 188 184 174 197 210 208 212 215 219 214 213 175 229 170 207
124 113 233 235 238 263 226 234 242 216 120 234 164 244 141 275 327 326 204 347 319 285 278 266 256 251 245 239 234 179 204 155 194 215 174 212 207 217 223 214 145 169 226 157
150 211 228 211 234 264 222 205 233 269 179 123 279 249 233 250 300 321 298 133 329 323 302 278 269 263 256 250 245 239 236 171 174 230 227 213 226 230 228 157 149 230 175 178
222 241 215 175 242 236 258 239 246 256 278 270 266 280 168 146 277 326 314 296 339 314 316 305 280 271 268 263 254 230 247 191 177 237 236 236 235 233 158 235 155 237 172 181
241 244 223 154 237 236 240 249 251 253 254 249 262 276 268 269 277 288 311 307 305 328 319 309 314 293 274 269 235 263 257 252 247 243 240 240 241 161 241 188 165 199 245 254
246 144 262 230 238 247 256 252 239 250 272 267 257 268 274 292 273 293 290 295 292 289 304 338 314 303 316 284 274 266 266 264 260 219 252 249 175 213 207 220 197 258 249 261
243 268 265 237 246 245 237 227 265 252 248 261 247 269 276 301 266 290 291 292 283 280 289 285 325 320 314 305 302 278 270 265 263 261 248 250 153 156 170 209 254 210 261 261
265 253 267 248 247 197 256 256 252 254 241 160 251 295 265 296 281 258 280 283 281 299 290 287 287 283 313 320 319 304 295 279 273 265 235 260 159 173 190 217 262 262 265 264
280 265 274 274 238 268 241 228 253 244 259 278 269 274 269 245 278 271 280 287 286 296 291 295 275 298 283 307 307 317 318 310 291 167 273 159 154 263 261 263 262 267 252 263
263 291 275 189 270 254 259 256 251 269 282 264 276 282 275 299 275 283 281 275 275 280 279 274 289 288 280 296 242 269 323 323 283 287 168 173 269 269 248 271 277 231 262 255